Wind_Speed
5 7 9 10 12 14 15 16 16 15 15 14 14 14 14 12 11 10 10 10 10 10 10 10 10 11 11 12 12 12 13 13 13 14 14 15 15 16 17 18 18 18 18 18 18 18 18 18 18
5 7 9 10 11 13 14 14 15 15 14 14 14 14 14 12 11 11 10 10 10 11 11 11 12 12 12 13 13 13 13 13 14 15 15 16 17 17 18 18 18 18 18 18 18 18 19 19 19
6 7 9 10 11 12 13 13 14 14 14 14 14 14 13 12 11 11 11 10 10 11 11 12 12 12 12 12 13 13 14 15 16 17 17 17 18 18 18 19 19 19 18 19 19 19 20 21 21
8 8 9 10 11 11 12 13 13 13 14 14 14 14 13 12 12 12 11 11 11 11 11 11 11 11 12 13 15 15 16 16 16 17 17 18 18 19 19 19 19 20 20 20 21 21 22 23 23
9 10 10 11 12 11 11 12 12 14 14 14 14 14 12 12 12 12 12 11 11 11 11 11 12 13 14 15 16 16 16 17 17 18 18 19 19 19 19 20 20 21 21 22 22 23 23 24 24
12 12 12 12 13 12 12 12 13 14 14 14 14 14 13 13 13 12 12 12 11 12 12 13 14 15 16 17 17 17 17 18 18 18 19 19 19 19 20 21 21 22 23 23 24 24 25 25 25
14 13 14 14 14 14 14 13 14 14 15 15 14 14 13 14 13 13 13 13 13 13 14 15 15 16 16 16 16 17 17 18 18 19 19 20 20 21 21 22 23 23 23 24 24 25 25 26 26
16 16 16 16 16 16 15 15 14 15 14 14 14 14 12 14 13 13 13 13 14 14 15 15 15 15 16 17 17 18 18 19 19 20 20 21 21 22 23 23 24 24 24 25 25 26 26 26 27
19 18 18 18 17 17 16 16 15 15 15 14 14 13 11 13 13 13 14 14 14 14 15 15 16 16 17 18 18 19 20 20 21 21 22 22 23 24 24 25 25 25 26 26 27 27 27 27 28
22 21 20 20 19 18 16 16 16 16 16 15 15 14 13 14 14 14 15 15 15 15 16 16 17 18 18 19 20 21 21 22 22 23 23 23 24 25 25 26 26 27 27 28 28 28 29 29 29
24 23 22 21 21 19 18 18 18 17 17 17 16 15 15 15 15 16 16 16 16 17 18 18 18 19 20 21 21 22 23 23 23 24 24 25 25 26 26 27 27 28 28 29 29 30 30 30 30
28 26 25 24 23 22 21 20 20 19 19 18 17 16 16 17 17 17 17 17 18 19 20 20 21 21 22 22 22 23 24 25 25 25 26 27 27 27 28 28 28 29 30 30 31 31 31 32 32
31 29 28 27 25 25 24 23 22 21 22 21 20 19 18 19 19 19 20 20 20 21 22 22 23 24 24 24 24 25 25 26 27 27 28 28 29 29 29 29 30 30 31 31 32 32 33 33 34
33 32 31 29 28 27 26 26 25 24 24 23 22 21 21 21 22 22 22 22 22 23 23 24 25 25 26 27 27 27 27 27 28 29 29 29 30 31 31 31 31 32 32 33 33 34 34 35 35
35 34 33 32 31 30 29 28 27 27 27 26 25 25 24 24 24 24 24 25 25 25 26 26 27 28 28 29 29 29 29 29 29 30 30 31 32 32 32 32 33 33 34 34 35 35 36 36 36
37 36 35 35 34 33 33 30 30 30 30 29 28 28 28 27 27 27 27 28 28 28 28 29 30 30 30 31 31 30 31 31 31 31 32 32 33 33 33 34 34 35 35 36 36 36 37 37 38
38 37 37 37 36 36 35 32 33 33 32 31 31 31 31 30 30 30 30 31 31 31 31 32 32 33 32 32 32 33 33 33 32 32 33 34 34 34 34 35 36 36 36 37 37 37 38 39 39
38 38 38 39 39 38 37 35 35 36 35 34 34 33 33 33 33 33 33 34 34 34 34 34 34 35 34 34 34 34 34 34 34 34 34 34 34 35 35 36 36 37 37 38 38 39 39 40 40
39 39 39 40 40 39 39 37 36 37 37 36 35 35 35 35 35 35 35 35 35 36 36 36 36 36 36 35 35 35 35 35 35 35 35 35 35 36 36 36 37 37 38 39 39 40 40 41 41
39 39 39 40 40 39 39 38 37 38 38 37 37 37 37 37 38 37 37 37 36 37 37 37 37 37 37 36 36 36 36 36 36 36 36 36 36 36 36 37 37 38 39 40 40 41 41 42 42
39 38 38 39 40 40 40 38 37 37 37 37 37 37 38 38 38 38 37 37 37 37 37 38 37 37 37 37 37 37 37 37 37 36 36 36 36 36 37 37 38 39 40 40 41 41 42 43 44
39 38 38 38 39 39 40 40 36 37 37 37 37 37 37 37 37 38 38 37 38 38 38 38 37 37 37 38 38 38 38 37 37 37 37 37 36 37 37 38 39 40 40 41 41 43 43 44 45
39 38 38 39 40 40 39 42 37 36 37 37 38 37 37 37 38 39 39 38 37 37 37 38 38 37 38 38 38 38 37 37 37 36 36 36 37 37 38 39 39 40 40 41 42 43 44 45 46
39 38 39 40 40 42 38 41 40 36 36 37 37 37 37 37 38 38 38 37 37 37 37 37 38 38 38 38 38 37 37 37 36 36 36 37 37 37 39 39 39 40 41 42 43 45 46 47 48
40 39 39 40 40 41 38 39 39 35 34 35 36 36 36 37 37 37 37 37 37 37 37 37 38 37 37 37 37 37 37 37 36 36 37 36 37 38 39 39 40 41 42 44 45 46 47 48 48
39 39 38 38 39 39 39 39 36 34 33 33 34 35 35 35 35 35 35 36 36 36 36 37 36 36 36 36 36 36 36 36 36 36 36 36 37 38 39 40 41 42 43 44 46 47 48 48 48
40 39 37 38 39 40 40 39 36 33 32 31 32 33 33 34 34 34 34 35 35 35 35 35 35 34 35 35 35 35 35 35 35 35 36 37 37 38 40 41 42 43 44 45 47 48 48 48 48
41 39 39 40 40 40 40 37 36 34 31 30 31 32 32 33 33 33 33 34 34 34 33 34 33 33 34 34 34 34 34 34 35 36 36 37 37 39 40 41 43 44 45 47 48 48 48 49 49
41 41 41 41 42 41 40 38 36 34 31 30 30 30 31 31 31 31 31 31 31 31 31 32 32 32 32 32 33 33 33 34 35 36 36 37 38 40 40 42 44 45 46 47 48 48 49 49 49
42 41 41 42 41 40 40 38 35 34 32 30 30 29 29 29 29 29 29 29 29 29 30 30 31 31 31 32 32 33 33 34 35 36 37 38 39 40 41 43 45 46 47 48 48 49 49 49 50
Wind_Direction
179 180 182 182 187 192 198 203 205 206 210 210 214 219 221 222 228 231 233 238 242 246 251 257 263 269 275 280 284 288 291 294 296 298 301 303 302 302 303 302 302 301 300 299 298 297 296 295 294
181 183 182 181 185 189 198 202 206 207 208 210 215 219 220 220 227 231 233 237 242 249 255 261 267 272 277 281 284 288 291 293 296 298 300 301 301 301 301 301 300 300 299 297 297 295 295 293 292
190 188 185 184 185 189 197 199 204 206 207 211 215 220 220 219 226 231 233 237 244 252 260 265 269 273 277 281 285 289 293 293 295 296 298 298 298 299 300 299 299 298 297 296 295 295 294 292 291
201 197 192 190 189 197 199 200 202 202 207 212 217 219 219 219 224 232 237 243 250 256 261 266 270 275 279 283 287 290 292 293 294 295 296 297 297 297 298 298 297 297 295 295 294 293 292 292 291
207 204 201 198 197 203 205 204 204 206 209 214 219 219 220 223 228 235 241 247 251 256 261 267 272 277 281 284 286 288 290 292 293 294 295 295 295 295 296 296 296 295 294 294 293 293 292 292 291
214 212 209 205 206 208 209 211 212 214 214 216 221 222 220 228 232 238 243 248 253 259 265 271 275 278 282 284 286 287 288 290 292 293 295 295 295 295 295 296 295 294 293 293 293 292 292 291 290
219 218 215 212 212 213 215 215 217 219 219 219 223 227 221 232 236 242 248 252 257 262 268 273 276 279 282 284 286 288 289 291 292 294 295 295 295 295 295 295 295 294 293 292 292 292 291 290 290
224 222 219 219 218 218 218 219 221 223 225 224 228 232 221 234 239 243 250 256 262 266 271 275 278 281 284 286 287 289 290 292 293 294 295 295 295 295 295 295 295 294 293 292 292 292 291 290 289
227 226 225 223 223 223 220 222 225 228 230 230 233 235 227 234 241 247 254 260 266 271 274 278 280 283 286 287 289 289 290 292 293 293 294 294 295 295 295 295 294 293 292 292 292 291 291 290 290
229 228 229 228 228 228 225 225 228 231 234 235 237 239 239 241 247 253 258 264 270 274 277 280 282 285 287 289 290 290 291 292 292 293 293 294 295 295 295 295 294 292 292 291 291 291 290 290 290
230 230 232 232 232 233 231 232 233 234 236 239 241 243 246 249 254 258 262 267 272 276 279 283 285 287 289 290 291 291 292 292 292 292 293 294 295 295 295 294 293 292 292 291 291 291 290 290 290
231 231 232 233 234 235 235 235 237 238 241 245 248 250 253 257 259 263 267 270 274 277 281 285 287 289 290 291 292 293 293 292 291 292 293 294 295 295 295 294 293 293 292 292 291 291 291 290 291
232 233 234 234 235 236 237 238 240 242 245 248 253 257 257 261 264 267 270 272 274 278 282 286 288 290 291 292 293 293 293 292 292 292 292 293 294 295 294 294 293 292 292 292 291 291 291 291 291
233 234 235 236 237 237 239 241 243 245 248 251 255 258 262 264 267 270 272 275 277 279 282 285 288 290 292 292 292 292 292 292 292 292 292 293 294 294 294 294 293 292 292 292 292 292 293 292 292
234 235 236 237 238 240 241 242 245 246 250 253 256 259 262 266 268 271 274 277 279 281 282 284 287 289 290 291 291 291 291 291 291 291 291 292 293 293 293 293 292 292 292 292 293 293 293 293 293
235 236 237 238 240 241 243 243 246 248 252 254 257 260 263 266 269 272 275 278 280 282 283 284 286 288 289 290 290 290 290 290 290 290 291 292 292 292 292 292 292 292 292 293 293 294 294 294 294
236 238 239 240 241 243 245 245 248 250 252 255 258 261 263 265 269 272 275 277 279 281 282 283 285 286 288 289 289 289 289 288 288 290 291 291 291 291 291 291 291 291 292 293 294 294 295 295 295
238 239 241 242 242 244 246 247 249 253 254 256 259 262 264 266 269 271 274 276 278 280 281 282 283 285 287 288 288 288 287 287 288 289 289 290 290 290 291 291 292 292 293 294 294 294 295 295 295
240 242 243 245 247 247 248 249 251 254 256 258 260 262 265 267 269 271 273 275 276 278 280 282 283 284 286 287 286 286 286 287 287 287 288 288 289 289 290 291 292 293 294 294 294 295 295 296 296
239 242 245 247 250 251 251 251 253 256 258 259 261 262 265 267 270 272 272 274 275 277 279 281 283 284 285 285 285 285 286 286 286 286 287 287 288 289 290 291 291 293 294 294 294 295 295 296 297
241 243 246 248 251 253 253 252 254 256 259 261 263 264 266 269 271 272 272 274 276 277 279 280 281 282 283 284 284 284 285 285 285 285 285 286 288 289 290 291 291 293 294 294 294 295 296 297 299
242 245 247 250 252 254 256 256 253 258 260 263 265 266 268 270 271 272 273 275 276 277 278 279 280 281 282 283 283 284 284 284 284 284 285 286 287 288 289 290 291 293 294 294 295 297 298 299 300
244 245 248 250 253 255 257 261 257 258 262 264 266 267 268 270 271 273 274 275 276 276 277 278 279 280 281 282 282 282 282 283 283 283 284 286 287 288 290 291 292 293 294 295 297 298 299 300 301
242 245 247 250 253 255 257 262 262 261 264 266 267 268 269 270 272 273 275 275 276 276 277 278 279 280 281 281 281 281 281 282 283 283 284 286 287 289 290 291 292 293 295 296 298 299 300 301 302
240 243 247 251 254 258 259 261 264 265 266 267 268 269 270 271 272 273 274 275 276 276 277 278 279 280 280 280 280 280 281 282 283 283 284 285 287 289 290 291 292 294 296 297 298 299 301 302 302
242 244 247 252 256 260 260 261 263 265 266 267 268 270 270 271 273 274 275 275 276 276 277 278 278 278 279 279 280 280 281 282 282 283 284 285 287 289 290 291 293 295 296 297 299 300 302 303 303
241 243 246 250 253 257 261 265 265 265 267 268 269 269 271 272 273 274 275 276 276 276 277 277 278 278 278 278 279 280 281 282 282 283 284 286 287 288 290 292 294 296 297 298 299 301 303 303 303
239 241 242 246 251 255 259 262 267 267 267 268 270 271 271 272 273 274 275 275 276 276 277 277 277 278 278 278 279 280 281 281 282 284 285 287 288 289 291 293 295 296 297 299 300 302 302 303 303
238 240 242 246 250 254 259 263 266 270 271 271 271 272 272 273 273 274 275 276 276 277 277 278 278 278 279 279 280 280 281 282 283 285 286 287 289 290 292 293 295 296 298 299 301 302 302 303 303
238 240 243 245 250 254 258 260 264 269 272 274 274 274 274 275 275 276 275 276 277 277 278 278 279 279 279 279 280 281 282 283 284 286 288 289 290 291 292 293 295 296 298 299 300 301 302 303 303
Height
5847 5848 5849 5850 5852 5853 5854 5856 5857 5859 5861 5863 5865 5866 5867 5870 5872 5875 5875 5874 5876 5877 5877 5878 5879 5880 5880 5880 5880 5880 5880 5880 5880 5879 5879 5878 5877 5877 5876 5875 5874 5873 5872 5872 5871 5870 5869 5868 5866
5847 5848 5849 5850 5851 5852 5854 5854 5856 5858 5860 5862 5863 5864 5866 5868 5869 5871 5872 5873 5874 5875 5876 5877 5877 5878 5878 5878 5878 5878 5878 5878 5877 5877 5876 5876 5875 5874 5873 5872 5871 5870 5869 5868 5868 5867 5865 5864 5863
5847 5848 5849 5850 5851 5851 5852 5853 5855 5856 5859 5860 5861 5863 5865 5867 5868 5869 5870 5871 5873 5874 5874 5875 5875 5876 5876 5876 5876 5876 5876 5875 5875 5874 5874 5873 5872 5871 5870 5869 5868 5867 5866 5865 5864 5863 5862 5861 5860
5847 5848 5849 5850 5850 5850 5851 5852 5854 5856 5857 5859 5860 5862 5864 5865 5867 5868 5869 5870 5871 5872 5872 5873 5873 5874 5874 5874 5874 5873 5873 5872 5872 5871 5871 5870 5869 5868 5867 5866 5865 5864 5863 5862 5861 5860 5859 5857 5856
5845 5847 5848 5848 5848 5849 5850 5851 5853 5854 5856 5857 5859 5860 5862 5864 5865 5866 5867 5868 5869 5870 5870 5871 5871 5871 5871 5871 5871 5871 5870 5869 5869 5868 5867 5867 5866 5865 5864 5863 5862 5861 5860 5858 5857 5856 5855 5853 5852
5844 5845 5847 5847 5847 5848 5849 5851 5852 5853 5855 5856 5857 5859 5861 5862 5863 5864 5865 5866 5867 5868 5868 5868 5868 5869 5868 5868 5868 5868 5867 5867 5866 5865 5864 5863 5862 5861 5860 5859 5858 5857 5856 5854 5853 5852 5850 5849 5848
5843 5844 5844 5845 5846 5847 5848 5849 5851 5852 5853 5854 5855 5857 5859 5860 5861 5862 5863 5864 5864 5865 5866 5866 5866 5866 5866 5865 5865 5865 5864 5863 5863 5862 5861 5860 5859 5858 5856 5855 5854 5853 5851 5850 5849 5847 5846 5845 5843
5840 5842 5842 5843 5844 5845 5846 5848 5849 5850 5851 5853 5854 5855 5857 5858 5859 5860 5861 5862 5862 5863 5863 5863 5863 5863 5863 5862 5862 5861 5861 5860 5859 5858 5857 5856 5855 5854 5852 5851 5850 5848 5847 5846 5844 5843 5841 5840 5838
5837 5840 5840 5841 5842 5843 5844 5846 5847 5848 5849 5851 5852 5853 5855 5856 5857 5858 5858 5859 5860 5860 5861 5861 5860 5860 5860 5859 5858 5858 5857 5856 5855 5854 5853 5852 5851 5850 5848 5847 5845 5844 5842 5841 5839 5838 5837 5835 5833
5833 5836 5837 5838 5839 5840 5842 5844 5845 5846 5847 5849 5850 5851 5852 5854 5854 5855 5856 5857 5857 5857 5857 5858 5858 5857 5857 5856 5855 5854 5853 5852 5851 5850 5849 5848 5846 5845 5843 5842 5841 5839 5837 5836 5834 5833 5831 5830 5828
5829 5832 5833 5834 5836 5838 5840 5841 5843 5844 5845 5846 5848 5849 5850 5851 5852 5852 5853 5854 5854 5854 5854 5854 5854 5853 5853 5852 5851 5850 5849 5848 5847 5846 5844 5843 5841 5840 5839 5837 5835 5834 5832 5830 5829 5827 5826 5824 5823
5825 5827 5828 5831 5833 5835 5836 5838 5840 5841 5843 5844 5845 5846 5848 5848 5849 5850 5850 5851 5851 5851 5850 5850 5850 5849 5849 5848 5847 5846 5845 5843 5842 5841 5839 5838 5836 5835 5833 5832 5830 5828 5827 5825 5823 5822 5820 5818 5817
5819 5822 5824 5826 5829 5831 5833 5835 5836 5838 5839 5840 5842 5843 5845 5845 5846 5846 5846 5847 5847 5847 5847 5846 5845 5845 5844 5843 5842 5841 5840 5839 5837 5836 5834 5833 5831 5829 5828 5826 5824 5822 5821 5819 5817 5816 5814 5812 5810
5813 5816 5819 5821 5824 5826 5828 5830 5832 5834 5835 5837 5838 5839 5840 5841 5842 5842 5843 5843 5843 5843 5842 5842 5841 5840 5839 5838 5837 5836 5835 5833 5832 5830 5829 5827 5825 5823 5822 5820 5818 5816 5815 5813 5811 5809 5807 5805 5803
5807 5810 5813 5816 5818 5821 5823 5826 5828 5829 5830 5833 5834 5835 5836 5837 5837 5838 5838 5838 5838 5838 5838 5837 5836 5835 5834 5833 5832 5831 5829 5828 5826 5824 5823 5821 5819 5817 5816 5814 5812 5810 5808 5806 5804 5802 5800 5798 5796
5800 5803 5807 5810 5812 5814 5819 5822 5822 5824 5825 5828 5829 5830 5831 5832 5833 5833 5833 5833 5833 5833 5833 5832 5831 5830 5829 5827 5826 5825 5823 5822 5820 5818 5816 5815 5813 5811 5809 5807 5805 5803 5801 5799 5797 5795 5793 5790 5788
5793 5797 5799 5803 5805 5808 5812 5816 5817 5818 5820 5822 5823 5824 5826 5827 5827 5828 5828 5828 5828 5827 5827 5826 5825 5824 5823 5822 5820 5819 5817 5815 5814 5812 5810 5808 5806 5804 5802 5800 5798 5796 5794 5792 5790 5787 5785 5783 5780
5787 5789 5792 5795 5797 5801 5804 5808 5810 5811 5813 5816 5817 5818 5819 5820 5821 5822 5822 5822 5821 5821 5820 5820 5819 5817 5816 5815 5814 5812 5810 5809 5807 5805 5803 5801 5799 5797 5795 5793 5791 5789 5787 5784 5782 5779 5777 5774 5772
5778 5782 5785 5787 5789 5793 5797 5801 5804 5804 5807 5809 5811 5812 5813 5813 5814 5815 5815 5815 5815 5814 5813 5813 5812 5810 5809 5808 5807 5805 5803 5802 5800 5798 5796 5794 5792 5790 5788 5786 5783 5781 5779 5776 5774 5771 5769 5766 5763
5771 5774 5777 5780 5782 5785 5789 5793 5796 5797 5799 5802 5803 5804 5805 5806 5807 5807 5808 5808 5808 5807 5806 5805 5805 5803 5802 5801 5799 5798 5796 5794 5792 5790 5788 5786 5784 5782 5780 5778 5776 5773 5771 5768 5765 5763 5760 5757 5754
5763 5767 5770 5773 5775 5777 5781 5785 5789 5790 5792 5794 5795 5797 5798 5799 5799 5799 5800 5800 5800 5799 5799 5798 5797 5796 5794 5793 5791 5790 5788 5786 5785 5783 5781 5779 5777 5775 5772 5770 5768 5765 5763 5760 5757 5754 5751 5748 5745
5756 5760 5763 5765 5767 5770 5773 5776 5782 5783 5784 5786 5788 5789 5790 5791 5791 5791 5792 5792 5792 5792 5791 5790 5789 5788 5786 5785 5784 5782 5780 5779 5777 5775 5773 5771 5769 5767 5764 5762 5760 5757 5754 5751 5748 5745 5742 5739 5735
5749 5753 5755 5757 5759 5762 5766 5766 5774 5776 5776 5778 5779 5781 5782 5783 5783 5783 5783 5784 5784 5783 5782 5781 5781 5780 5778 5777 5775 5774 5772 5770 5769 5767 5765 5763 5761 5759 5756 5754 5751 5748 5745 5742 5739 5736 5732 5729 5725
5741 5745 5747 5749 5751 5754 5760 5759 5763 5768 5769 5770 5771 5772 5773 5774 5774 5774 5775 5775 5775 5775 5774 5773 5772 5771 5770 5768 5767 5765 5764 5762 5761 5759 5757 5755 5753 5751 5748 5745 5742 5740 5737 5734 5730 5726 5723 5719 5715
5732 5737 5740 5741 5743 5747 5751 5751 5755 5759 5761 5762 5763 5764 5765 5765 5766 5766 5766 5766 5766 5766 5765 5764 5764 5763 5761 5760 5758 5757 5756 5754 5752 5751 5749 5747 5745 5742 5739 5737 5734 5731 5728 5724 5721 5717 5713 5709 5704
5725 5729 5733 5736 5738 5739 5741 5744 5749 5751 5753 5754 5755 5755 5756 5757 5757 5758 5758 5758 5758 5757 5756 5756 5755 5754 5753 5751 5750 5749 5747 5746 5744 5742 5741 5739 5737 5734 5731 5728 5725 5722 5719 5715 5711 5707 5703 5698 5694
5716 5720 5726 5728 5729 5731 5733 5736 5740 5743 5745 5746 5747 5747 5748 5749 5749 5749 5749 5749 5749 5749 5748 5747 5746 5745 5744 5743 5742 5740 5739 5737 5736 5734 5732 5730 5728 5725 5722 5719 5716 5713 5709 5705 5701 5697 5693 5688 5683
5708 5713 5716 5718 5720 5722 5726 5729 5732 5734 5737 5738 5739 5739 5740 5741 5741 5741 5741 5741 5740 5740 5739 5739 5738 5737 5736 5735 5733 5732 5731 5729 5728 5726 5724 5722 5719 5716 5714 5710 5707 5703 5700 5695 5691 5687 5682 5677 5672
5700 5704 5707 5711 5713 5716 5718 5724 5724 5726 5728 5730 5731 5732 5732 5733 5733 5733 5733 5732 5732 5731 5731 5730 5730 5729 5728 5726 5725 5724 5723 5721 5719 5717 5715 5713 5710 5707 5704 5701 5698 5694 5690 5685 5681 5676 5671 5666 5661
5690 5695 5699 5703 5706 5709 5711 5717 5717 5719 5720 5722 5723 5724 5724 5725 5725 5725 5725 5724 5724 5724 5723 5722 5721 5720 5719 5718 5717 5716 5714 5712 5711 5709 5706 5704 5701 5698 5695 5691 5688 5684 5679 5675 5670 5665 5660 5655 5650